Location: Unspecified
(0.0000°N, 1.0000°E)
Time: 19:29:58
(UTC+01:00)

Hubble Space Telescope - Visible Passes

Search period start: 21 January 2022 00:00
Search period end: 31 January 2022 00:00
Orbit: 535 x 538 km, 28.5° (Epoch: 21 January)

Date Brightness Start Highest point End Pass type
(mag) Time Alt. Az. Time Alt. Az. Time Alt. Az.
21 Jan 2.6 19:26:44 10° SSW 19:29:51 21° SSE 19:32:59 10° ESE visible
21 Jan 2.3 21:06:54 10° WSW 21:09:25 34° W 21:09:25 34° W visible
22 Jan 1.9 20:55:49 10° WSW 20:58:58 38° WNW 20:58:58 38° WNW visible
23 Jan 2.0 20:44:50 10° W 20:48:29 30° NNW 20:48:33 30° NNW visible
24 Jan 2.5 20:34:00 10° W 20:37:15 22° NNW 20:38:08 21° N visible
25 Jan 3.5 05:10:08 11° NE 05:10:08 11° NE 05:10:43 10° NE visible
25 Jan 2.9 20:23:22 10° WNW 20:26:02 17° NNW 20:27:44 13° N visible
26 Jan 3.5 04:59:43 13° NE 04:59:43 13° NE 05:00:35 10° ENE visible
26 Jan 0.8 06:35:07 10° WNW 06:39:15 86° SSW 06:43:22 10° ESE visible
26 Jan 3.2 20:13:05 10° NW 20:14:50 12° NNW 20:16:35 10° N visible
27 Jan 3.6 04:49:18 13° ENE 04:49:18 13° ENE 04:50:00 10° E visible
27 Jan 1.0 06:24:37 14° WNW 06:27:58 60° SSW 06:32:03 10° SE visible
28 Jan 3.9 04:38:53 12° E 04:38:53 12° E 04:39:12 10° E visible
28 Jan 1.5 06:14:12 19° W 06:16:43 42° SSW 06:20:38 10° SE visible
29 Jan 2.0 06:03:46 22° WSW 06:05:28 30° SSW 06:09:07 10° SSE visible
30 Jan 2.3 05:53:18 20° SW 05:54:14 22° SSW 05:57:29 10° SSE visible
